Bastia, France

4:37 AM CEST on October 17, 2017 (GMT +0200)
Poretta

Weather History for LFKB - February, 2014

Change the Weather History Date:

Friday, February 21, 2014

  Actual Average Record
Temperature  
Mean Temperature 55 °F -  
Max Temperature 60 °F 57 °F 60 °F (2014)
Min Temperature 50 °F 41 °F 36 °F (2015)
Degree Days  
Heating Degree Days 10    
Growing Degree Days 5 (Base 50)    
Moisture  
Dew Point 47 °F    
Average Humidity 72    
Maximum Humidity 88    
Minimum Humidity 52    
Precipitation  
Precipitation 0.00 in - - ()
Sea Level Pressure  
Sea Level Pressure 29.91 in    
Wind  
Wind Speed 5 mph ()    
Max Wind Speed 13 mph    
Max Gust Speed -    
Visibility 7.9 miles    
Events Rain    
Averages and records for this station are not official NWS values.
T = Trace of Precipitation, MM = Missing Value Source: Averaged Metar Reports

Daily Weather History Graph

Daily Weather History Graph

Search for Another Location

Airport or City:

Trip Planner

Search our weather history database for the weather conditions in past years. The results will help you decide how hot, cold, wet, or windy it might be!

Date:

Astronomy

Feb. 21, 2014 Rise Set
Actual Time 7:10 AM CET 6:01 PM CET
Civil Twilight 6:41 AM CET 6:30 PM CET
Nautical Twilight 6:09 AM CET 7:02 PM CET
Astronomical Twilight 5:36 AM CET 7:35 PM CET
Moon No Moon Rise 10:14 AM CET (2/21)
Length of Visible Light 11h 48m
Length of Day
10h 51m
Waning Gibbous, 63% of the Moon is Illuminated
Feb 21
Waning Gibbous
Feb 22
Last Quarter
Mar 1
New
Mar 8
First Quarter
Mar 16
Full

Hourly Weather History & Observations

Time (CET) Temp. Dew Point Humidity Pressure Visibility Wind Dir Wind Speed Gust Speed Precip Events Conditions
12:00 AM 53 °F 47 °F 75% 29.92 in 37 mi NNW 9.2 mph - -   Clear
12:00 AM 53.6 °F 48.2 °F 82% 29.92 in 6.2 mi NNW 9.2 mph - N/A   Overcast
12:30 AM 53.6 °F 48.2 °F 82% 29.92 in 6.2 mi NNW 9.2 mph - N/A   Overcast
1:00 AM 52 °F 47 °F 77% 29.92 in 37 mi NNW 8.1 mph - -   Clear
1:00 AM 51.8 °F 46.4 °F 82% 29.92 in 6.2 mi NNW 8.1 mph - N/A   Overcast
1:30 AM 53.6 °F 46.4 °F 77% 29.89 in 6.2 mi NW 5.8 mph - N/A   Overcast
2:00 AM 54 °F 47 °F 68% 29.91 in 37 mi NW 9.2 mph - -   Clear
2:00 AM 53.6 °F 46.4 °F 77% 29.89 in 6.2 mi NW 9.2 mph - N/A   Overcast
2:30 AM 51.8 °F 46.4 °F 82% 29.89 in 6.2 mi NNW 8.1 mph - N/A   Mostly Cloudy
3:00 AM 51 °F 46 °F 77% 29.91 in 12 mi NNW 8.1 mph - -   Mostly Cloudy
3:00 AM 50.0 °F 46.4 °F 87% 29.89 in 6.2 mi NNW 8.1 mph - N/A   Mostly Cloudy
3:30 AM 51.8 °F 44.6 °F 76% 29.89 in 6.2 mi Variable 2.3 mph - N/A   Scattered Clouds
4:00 AM 52 °F 46 °F 71% 29.91 in 12 mi NW 1.2 mph - -   Mostly Cloudy
4:00 AM 51.8 °F 44.6 °F 76% 29.89 in 6.2 mi Variable 1.2 mph - N/A   Scattered Clouds
4:30 AM 53.6 °F 46.4 °F 77% 29.89 in 6.2 mi WNW 2.3 mph - N/A   Mostly Cloudy
5:00 AM 53.6 °F 46.4 °F 77% 29.89 in 6.2 mi West 4.6 mph - N/A   Mostly Cloudy
5:30 AM 53.6 °F 46.4 °F 77% 29.89 in 6.2 mi NW 12.7 mph - N/A   Mostly Cloudy
6:00 AM 54 °F 46 °F 65% 29.91 in 12 mi NW 8.1 mph - -   Mostly Cloudy
6:00 AM 53.6 °F 44.6 °F 72% 29.92 in 6.2 mi NW 9.2 mph - N/A   Mostly Cloudy
6:30 AM 53.6 °F 44.6 °F 72% 29.89 in 6.2 mi Calm Calm - N/A   Mostly Cloudy
7:00 AM 52 °F 44 °F 66% 29.92 in 25 mi East 1.2 mph - -   Partly Cloudy
7:00 AM 51.8 °F 42.8 °F 71% 29.92 in 6.2 mi Variable 1.2 mph - N/A   Scattered Clouds
7:30 AM 51.8 °F 42.8 °F 71% 29.92 in 6.2 mi SSE 3.5 mph - N/A   Partly Cloudy
8:00 AM 51 °F 43 °F 65% 29.93 in 31 mi SW 2.3 mph - -   Scattered Clouds
8:00 AM 51.8 °F 42.8 °F 71% 29.92 in 6.2 mi SW 2.3 mph - N/A   Partly Cloudy
8:41 AM 53.6 °F 44.6 °F 72% 29.92 in 6.2 mi SSW 4.6 mph - N/A   Partly Cloudy
9:00 AM 55 °F 45 °F 59% 29.94 in 31 mi SSW 5.8 mph - -   Scattered Clouds
9:00 AM 55.4 °F 46.4 °F 72% 29.92 in 6.2 mi SSW 4.6 mph - N/A   Scattered Clouds
9:30 AM 57.2 °F 44.6 °F 63% 29.92 in 6.2 mi SSW 4.6 mph - N/A   Scattered Clouds
10:00 AM 58 °F 45 °F 52% 29.94 in 34 mi SSW 3.5 mph - -   Clear
10:00 AM 59.0 °F 46.4 °F 63% 29.92 in 6.2 mi SSW 3.5 mph - N/A   Scattered Clouds
10:30 AM 59.0 °F 46.4 °F 63% 29.92 in 6.2 mi East 4.6 mph - N/A   Scattered Clouds
11:00 AM 60 °F 48 °F 55% 29.94 in 31 mi East 6.9 mph - -   Scattered Clouds
11:00 AM 59.0 °F 48.2 °F 67% 29.92 in 6.2 mi East 6.9 mph - N/A   Scattered Clouds
11:30 AM 59.0 °F 46.4 °F 63% 29.92 in 6.2 mi East 5.8 mph - N/A   Scattered Clouds
12:00 PM 60 °F 47 °F 53% 29.94 in 28 mi ESE 4.6 mph - -   Clear
12:00 PM 59.0 °F 46.4 °F 63% 29.92 in 6.2 mi ESE 6.9 mph - N/A   Mostly Cloudy
12:36 PM 59.0 °F 46.4 °F 63% 29.92 in 6.2 mi ESE 5.8 mph - N/A   Mostly Cloudy
1:00 PM 59 °F 46 °F 53% 29.92 in 31 mi East 8.1 mph - -   Mostly Cloudy
1:12 PM 59.0 °F 46.4 °F 63% 29.92 in 6.2 mi ESE 6.9 mph - N/A   Mostly Cloudy
1:30 PM 59.0 °F 46.4 °F 63% 29.92 in 6.2 mi East 6.9 mph - N/A   Mostly Cloudy
2:00 PM 60 °F 48 °F 54% 29.91 in 31 mi ESE 8.1 mph - -   Mostly Cloudy
2:00 PM 59.0 °F 48.2 °F 67% 29.89 in 6.2 mi ESE 8.1 mph - N/A   Mostly Cloudy
2:30 PM 60.8 °F 50.0 °F 68% 29.89 in 6.2 mi East 8.1 mph - N/A   Mostly Cloudy
2:41 PM 59.0 °F 50.0 °F 72% 29.89 in 6.2 mi ESE 6.9 mph - N/A   Mostly Cloudy
3:00 PM 58 °F 48 °F 62% 29.90 in 31 mi ESE 6.9 mph - -   Mostly Cloudy
3:10 PM 59.0 °F 48.2 °F 67% 29.89 in 6.2 mi East 6.9 mph - N/A   Mostly Cloudy
4:00 PM 57 °F 47 °F 61% 29.90 in 19 mi ESE 5.8 mph - -   Mostly Cloudy
4:00 PM 57.2 °F 48.2 °F 72% 29.89 in 6.2 mi ESE 5.8 mph - N/A   Mostly Cloudy
5:00 PM 57 °F 47 °F 62% 29.90 in 19 mi ESE 3.5 mph - - Rain Light Rain Showers
5:00 PM 57.2 °F 48.2 °F 72% 29.89 in 6.2 mi ESE 2.3 mph - N/A   Mostly Cloudy
5:30 PM 57.2 °F 48.2 °F 72% 29.89 in 6.2 mi ESE 4.6 mph - N/A   Mostly Cloudy
6:00 PM 56 °F 49 °F 69% 29.90 in 19 mi Calm Calm - - Rain Light Rain Showers
6:00 PM 55.4 °F 48.2 °F 77% 29.89 in 6.2 mi Calm Calm - N/A   Mostly Cloudy
6:30 PM 55.4 °F 48.2 °F 77% 29.89 in 6.2 mi ESE 2.3 mph - N/A   Mostly Cloudy
7:00 PM 55 °F 49 °F 73% 29.91 in 19 mi West 1.2 mph - -   Partly Cloudy
7:00 PM 55.4 °F 48.2 °F 77% 29.89 in 6.2 mi Variable 1.2 mph - N/A   Mostly Cloudy
7:30 PM 53.6 °F 48.2 °F 82% 29.89 in 6.2 mi Variable 1.2 mph - N/A   Mostly Cloudy
8:00 PM 53 °F 49 °F 80% 29.90 in 19 mi SSW 3.5 mph - -   Mostly Cloudy
8:00 PM 53.6 °F 48.2 °F 82% 29.89 in 6.2 mi SSW 3.5 mph - N/A   Mostly Cloudy
8:30 PM 51.8 °F 48.2 °F 88% 29.89 in 6.2 mi Calm Calm - N/A   Mostly Cloudy
9:00 PM 52 °F 48 °F 82% 29.90 in 12 mi SW 2.3 mph - -   Partly Cloudy
9:00 PM 51.8 °F 48.2 °F 88% 29.89 in 6.2 mi SW 2.3 mph - N/A   Mostly Cloudy
9:30 PM 51.8 °F 48.2 °F 88% 29.89 in 6.2 mi Calm Calm - N/A   Mostly Cloudy
10:00 PM 51 °F 48 °F 87% 29.90 in 12 mi WSW 2.3 mph - -   Partly Cloudy
10:00 PM 51.8 °F 48.2 °F 88% 29.89 in 6.2 mi Variable 2.3 mph - N/A   Mostly Cloudy
10:30 PM 51.8 °F 48.2 °F 88% 29.89 in 6.2 mi Variable 3.5 mph - N/A   Mostly Cloudy
11:00 PM 51 °F 48 °F 87% 29.91 in 12 mi WNW 2.3 mph - -   Mostly Cloudy
11:00 PM 51.8 °F 48.2 °F 88% 29.89 in 6.2 mi WNW 2.3 mph - N/A   Mostly Cloudy
11:30 PM 53.6 °F 46.4 °F 77% 29.89 in 5.0 mi NW 9.2 mph - N/A Rain Rain